Location: ????
(55.2778°N, 39.2433°E)
Time: 13:47:02
(UTC+00:00)

FLOCK 4Y 26 - Visible Passes

Search period start: 14 September 2024 00:00
Search period end: 24 September 2024 00:00
Orbit: 457 x 472 km, 97.4° (Epoch: 13 September)

Date Brightness Start Highest point End Pass type
(mag) Time Alt. Az. Time Alt. Az. Time Alt. Az.
14 Sep ? 16:44:12 10° ENE 16:45:08 11° NE 16:46:05 10° NE visible
14 Sep ? 18:17:42 71° NE 18:17:42 71° NE 18:21:05 10° N visible
14 Sep ? 19:51:39 13° WNW 19:51:39 13° WNW 19:52:48 10° WNW visible
15 Sep ? 17:47:04 35° ENE 17:47:10 35° ENE 17:50:25 10° N visible
15 Sep ? 19:21:01 23° WNW 19:21:01 23° WNW 19:23:16 10° NW visible
16 Sep ? 17:16:20 19° ENE 17:16:50 19° ENE 17:19:24 10° NNE visible
16 Sep ? 18:50:17 43° WNW 18:50:17 43° WNW 18:53:02 10° NNW visible
17 Sep ? 16:45:31 10° ENE 16:46:31 11° NE 16:47:32 10° NE visible
17 Sep ? 18:19:28 58° N 18:19:28 58° N 18:22:26 10° NNW visible
17 Sep ? 19:53:24 12° WNW 19:53:24 12° WNW 19:54:03 10° WNW visible
18 Sep ? 17:48:33 35° NE 17:48:33 35° NE 17:51:30 10° N visible
18 Sep ? 19:22:29 21° WNW 19:22:29 21° WNW 19:24:20 10° NW visible
19 Sep ? 17:17:33 19° ENE 17:17:38 19° ENE 17:20:13 10° NNE visible
19 Sep ? 18:51:29 35° NW 18:51:29 35° NW 18:53:50 10° NNW visible
20 Sep ? 16:46:28 11° ENE 16:47:03 11° NE 16:48:04 10° NE visible
20 Sep ? 18:20:24 45° N 18:20:24 45° N 18:22:57 10° NNW visible
20 Sep ? 19:54:19 11° WNW 19:54:19 11° WNW 19:54:32 10° WNW visible
21 Sep ? 17:49:12 32° NE 17:49:12 32° NE 17:51:45 10° N visible
21 Sep ? 19:23:07 18° WNW 19:23:07 18° WNW 19:24:34 10° NW visible
22 Sep ? 17:17:56 19° NE 17:17:56 19° NE 17:20:11 10° NNE visible
22 Sep ? 18:51:51 29° NW 18:51:51 29° NW 18:53:48 10° NNW visible
23 Sep ? 16:46:35 11° ENE 16:46:47 11° NE 16:47:42 10° NE visible
23 Sep ? 18:20:29 35° N 18:20:29 35° N 18:22:39 10° NNW visible
